Location: Asheville, NC
(35.6000°N, 82.5500°W)
Time: 04:41:00
(UTC-04:00)

XW-2D - Pass Details

Date: 09 February 2018
Orbit: 509 x 531 km, 97.5° (Epoch: 25 May)

Event Time Altitude Azimuth Distance (km) Brightness Sun altitude
Rises 05:42:13 0° 30° (NNE) 2,618 ? -21.0°
Reaches altitude 10° 05:44:49 10° 50° (NE) 1,729 ? -20.4°
Maximum altitude 05:47:28 18° 95° (E) 1,287 ? -19.9°
Drops below altitude 10° 05:50:06 10° 140° (SE) 1,726 ? -19.4°
Sets 05:52:41 0° 160° (SSE) 2,610 ? -18.8°
